Home   Weather   Hialeah   Past weeks
Flag for USA

Past Weather in Hialeah, Florida, USA — Yesterday and Last 2 Weeks

Now
87 °F

Scattered clouds.


Feels Like: 97 °F
Forecast: 89 / 76 °F
Wind: 14 mph from West

Location: Opa Locka Airport

Current Time: Oct 17, 2019 at 4:36:54 pm

Latest Report: Oct 17, 2019 at 3:53 pm


Visibility: 10 mi

Pressure: 29.88 "Hg

Humidity: 67%

Dew Point: 75 °F

Location of HialeahLocation

Past Weather in Hialeah — Graph

°F

Hialeah Temperature Yesterday

Maximum temperature yesterday: 91 °F (at 1:53 pm)
Minimum temperature yesterday: 75 °F (at 3:53 am)
Average temperature yesterday: 82 °F

High & Low Weather Summary for the Past Weeks

 TemperatureHumidityPressure
High91 °F (Oct 16, 1:53 pm)97% (Oct 7, 12:56 pm)30.08 "Hg (Oct 7, 12:56 pm)
Low73 °F (Oct 11, 6:15 pm)54% (Oct 16, 1:53 pm)29.80 "Hg (Oct 7, 5:25 pm)
Average80 °F80%29.94 "Hg
* Reported Oct 2 2:53 pm — Oct 17 2:53 pm, Hialeah. Weather by CustomWeather, © 2019

Note: Actual official high and low records may vary slightly from our data, if they occured in-between our weather recording intervals... More about our weather records

Advertising

Hialeah Weather History for the Previous 24 Hours

Scroll right to see more
 ConditionsComfort  
Time TempWeatherWind HumidityBarometerVisibility
2:53 pm
Thu, Oct 17
90 °FScattered clouds.13 mph61%29.88 "Hg10 mi
1:53 pm87 °FPassing clouds.9 mph69%29.91 "Hg10 mi
12:53 pm87 °FSunny.6 mph67%29.93 "Hg10 mi
11:53 am88 °FScattered clouds.9 mph65%29.95 "Hg10 mi
10:24 am85 °FBroken clouds.7 mph77%29.97 "Hg10 mi
9:53 am83 °FPartly sunny.10 mph82%29.97 "Hg10 mi
9:42 am83 °FPartly sunny.10 mph82%29.96 "Hg10 mi
8:53 am82 °FSunny.9 mph85%29.95 "Hg10 mi
7:53 am78 °FSunny.5 mph93%29.93 "Hg10 mi
6:53 am78 °FClear.6 mph90%29.92 "Hg10 mi
5:53 am77 °FClear.5 mph94%29.90 "Hg10 mi
4:53 am77 °FClear.3 mph94%29.90 "Hg10 mi
3:53 am78 °FClear.5 mph90%29.91 "Hg10 mi
2:53 am78 °FClear.7 mph90%29.91 "Hg10 mi
1:53 am78 °FClear.3 mph90%29.91 "Hg10 mi
12:53 am79 °FClear.6 mph88%29.92 "Hg10 mi
11:53 pm
Wed, Oct 16
80 °FClear.9 mph85%29.94 "Hg10 mi
10:53 pm81 °FClear.8 mph82%29.94 "Hg10 mi
9:53 pm82 °FClear.10 mph77%29.93 "Hg10 mi
8:53 pm83 °FClear.9 mph74%29.92 "Hg10 mi
7:53 pm84 °FClear.12 mph70%29.90 "Hg10 mi
6:53 pm86 °FClear.10 mph63%29.89 "Hg10 mi
5:53 pm89 °FSunny.15 mph55%29.88 "Hg10 mi
4:53 pm91 °FPassing clouds.15 mph54%29.88 "Hg10 mi
Weather by CustomWeather, © 2019

See weather overview